Year,Month,Day,Hour,Minute,Value (Times are PST for temperature in C)
2006,12,01,00,00,-1.30
2006,12,01,00,01,-1.40
2006,12,01,00,02,-1.40
2006,12,01,00,03,-1.40
2006,12,01,00,04,-1.50
2006,12,01,00,05,-1.50
2006,12,01,00,06,-1.60
2006,12,01,00,07,-1.70
2006,12,01,00,08,-1.70
2006,12,01,00,09,-1.70
2006,12,01,00,10,-1.80
2006,12,01,00,11,-1.80
2006,12,01,00,12,-1.80
2006,12,01,00,13,-1.80
2006,12,01,00,14,-1.80
2006,12,01,00,15,-1.80
2006,12,01,00,16,-1.70
2006,12,01,00,17,-1.70
2006,12,01,00,18,-1.60
2006,12,01,00,19,-1.60
2006,12,01,00,20,-1.60
2006,12,01,00,21,-1.60
2006,12,01,00,22,-1.60
2006,12,01,00,23,-1.60
2006,12,01,00,24,-1.60
2006,12,01,00,25,-1.60
2006,12,01,00,26,-1.60
2006,12,01,00,27,-1.60
2006,12,01,00,28,-1.60
2006,12,01,00,29,-1.60
2006,12,01,00,30,-1.60
2006,12,01,00,31,-1.60
2006,12,01,00,32,-1.50
2006,12,01,00,33,-1.50
2006,12,01,00,34,-1.50
2006,12,01,00,35,-1.50
2006,12,01,00,36,-1.60
2006,12,01,00,37,-1.70
2006,12,01,00,38,-1.70
2006,12,01,00,39,-1.80
2006,12,01,00,40,-1.80
2006,12,01,00,41,-1.90
2006,12,01,00,42,-2.00
2006,12,01,00,43,-2.00
2006,12,01,00,44,-2.10
2006,12,01,00,45,-2.10
2006,12,01,00,46,-2.20
2006,12,01,00,47,-2.10
2006,12,01,00,48,-2.10
2006,12,01,00,49,-2.00
2006,12,01,00,50,-2.00
2006,12,01,00,51,-2.00
2006,12,01,00,52,-2.10
2006,12,01,00,53,-2.10
2006,12,01,00,54,-2.00
2006,12,01,00,55,-2.00
2006,12,01,00,56,-2.00
2006,12,01,00,57,-1.90
2006,12,01,00,58,-1.70
2006,12,01,00,59,-1.60
2006,12,01,01,00,-1.40
2006,12,01,01,01,-1.30
2006,12,01,01,02,-1.20
2006,12,01,01,03,-1.10
2006,12,01,01,04,-1.10
2006,12,01,01,05,-1.00
2006,12,01,01,06,-1.00
2006,12,01,01,07,-1.10
2006,12,01,01,08,-1.10
2006,12,01,01,09,-1.10
2006,12,01,01,10,-1.10
2006,12,01,01,11,-1.10
2006,12,01,01,12,-1.00
2006,12,01,01,13,-0.90
2006,12,01,01,14,-0.80
2006,12,01,01,15,-0.80
2006,12,01,01,16,-0.80
2006,12,01,01,17,-0.70
2006,12,01,01,18,-0.60
2006,12,01,01,19,-0.60
2006,12,01,01,20,-0.60
2006,12,01,01,21,-0.60
2006,12,01,01,22,-0.70
2006,12,01,01,23,-0.70
2006,12,01,01,24,-0.70
2006,12,01,01,25,-0.70
2006,12,01,01,26,-0.70
2006,12,01,01,27,-0.70
2006,12,01,01,28,-0.70
2006,12,01,01,29,-0.70
2006,12,01,01,30,-0.70
2006,12,01,01,31,-0.70
2006,12,01,01,32,-0.70
2006,12,01,01,33,-0.70
2006,12,01,01,34,-0.70
2006,12,01,01,35,-0.70
2006,12,01,01,36,-0.70
2006,12,01,01,37,-0.70
2006,12,01,01,38,-0.70
2006,12,01,01,39,-0.70
2006,12,01,01,40,-0.70
2006,12,01,01,41,-0.70
2006,12,01,01,42,-0.80
2006,12,01,01,43,-0.90
2006,12,01,01,44,-0.90
2006,12,01,01,45,-1.00
2006,12,01,01,46,-1.10
2006,12,01,01,47,-1.20
2006,12,01,01,48,-1.30
2006,12,01,01,49,-1.40
2006,12,01,01,50,-1.40
2006,12,01,01,51,-1.40
2006,12,01,01,52,-1.30
2006,12,01,01,53,-1.20
2006,12,01,01,54,-1.20
2006,12,01,01,55,-1.20
2006,12,01,01,56,-1.10
2006,12,01,01,57,-1.00
2006,12,01,01,58,-0.90
2006,12,01,01,59,-0.70
2006,12,01,02,00,-0.60
2006,12,01,02,01,-0.60
2006,12,01,02,02,-0.40
2006,12,01,02,03,-0.60
2006,12,01,02,04,-0.50
2006,12,01,02,05,-0.40
2006,12,01,02,06,-0.30
2006,12,01,02,07,-0.30
2006,12,01,02,08,-0.40
2006,12,01,02,09,-0.40
2006,12,01,02,10,-0.40
2006,12,01,02,11,-0.40
2006,12,01,02,12,-0.40
2006,12,01,02,13,-0.40
2006,12,01,02,14,-0.30
2006,12,01,02,15,-0.40
2006,12,01,02,16,-0.30
2006,12,01,02,17,-0.30
2006,12,01,02,18,-0.40
2006,12,01,02,19,-0.40
2006,12,01,02,20,-0.60
2006,12,01,02,21,-0.60
2006,12,01,02,22,-0.70
2006,12,01,02,23,-0.80
2006,12,01,02,24,-0.90
2006,12,01,02,25,-0.90
2006,12,01,02,26,-0.90
2006,12,01,02,27,-1.00
2006,12,01,02,28,-0.90
2006,12,01,02,29,-0.90
2006,12,01,02,30,-0.90
2006,12,01,02,31,-0.90
2006,12,01,02,32,-0.90
2006,12,01,02,33,-1.00
2006,12,01,02,34,-1.10
2006,12,01,02,35,-1.10
2006,12,01,02,36,-1.10
2006,12,01,02,37,-1.20
2006,12,01,02,38,-1.30
2006,12,01,02,39,-1.40
2006,12,01,02,40,-1.50
2006,12,01,02,41,-1.60
2006,12,01,02,42,-1.60
2006,12,01,02,43,-1.70
2006,12,01,02,44,-1.70
2006,12,01,02,45,-1.80
2006,12,01,02,46,-1.80
2006,12,01,02,47,-1.80
2006,12,01,02,48,-1.80
2006,12,01,02,49,-1.80
2006,12,01,02,50,-1.80
2006,12,01,02,51,-1.80
2006,12,01,02,52,-1.90
2006,12,01,02,53,-1.90
2006,12,01,02,54,-1.90
2006,12,01,02,55,-1.90
2006,12,01,02,56,-1.90
2006,12,01,02,57,-1.90
2006,12,01,02,58,-2.00
2006,12,01,02,59,-2.00
2006,12,01,03,00,-2.00
2006,12,01,03,01,-2.00
2006,12,01,03,02,-2.00
2006,12,01,03,03,-2.00
2006,12,01,03,04,-2.00
2006,12,01,03,05,-1.90
2006,12,01,03,06,-1.90
2006,12,01,03,07,-1.90
2006,12,01,03,08,-1.90
2006,12,01,03,09,-2.00
2006,12,01,03,10,-2.00
2006,12,01,03,11,-2.10
2006,12,01,03,12,-2.10
2006,12,01,03,13,-2.00
2006,12,01,03,14,-2.00
2006,12,01,03,15,-2.10
2006,12,01,03,16,-2.10
2006,12,01,03,17,-2.20
2006,12,01,03,18,-2.20
2006,12,01,03,19,-2.20
2006,12,01,03,20,-2.20
2006,12,01,03,21,-2.10
2006,12,01,03,22,-2.10
2006,12,01,03,23,-2.00
2006,12,01,03,24,-2.00
2006,12,01,03,25,-2.00
2006,12,01,03,26,-2.00
2006,12,01,03,27,-1.90
2006,12,01,03,28,-1.90
2006,12,01,03,29,-1.80
2006,12,01,03,30,-1.80
2006,12,01,03,31,-1.80
2006,12,01,03,32,-1.80
2006,12,01,03,33,-1.70
2006,12,01,03,34,-1.70
2006,12,01,03,35,-1.70
2006,12,01,03,36,-1.70
2006,12,01,03,37,-1.80
2006,12,01,03,38,-1.90
2006,12,01,03,39,-2.00
2006,12,01,03,40,-2.10
2006,12,01,03,41,-2.10
2006,12,01,03,42,-2.20
2006,12,01,03,43,-2.20
2006,12,01,03,44,-2.10
2006,12,01,03,45,-2.00
2006,12,01,03,46,-2.00
2006,12,01,03,47,-1.90
2006,12,01,03,48,-1.80
2006,12,01,03,49,-1.80
2006,12,01,03,50,-1.80
2006,12,01,03,51,-1.80
2006,12,01,03,52,-1.90
2006,12,01,03,53,-1.90
2006,12,01,03,54,-1.90
2006,12,01,03,55,-1.90
2006,12,01,03,56,-1.90
2006,12,01,03,57,-1.90
2006,12,01,03,58,-1.90
2006,12,01,03,59,-1.90
2006,12,01,04,00,-2.00
2006,12,01,04,01,-2.10
2006,12,01,04,02,-2.20
2006,12,01,04,03,-2.20
2006,12,01,04,04,-2.30
2006,12,01,04,05,-2.30
2006,12,01,04,06,-2.20
2006,12,01,04,07,-2.10
2006,12,01,04,08,-2.10
2006,12,01,04,09,-2.00
2006,12,01,04,10,-2.00
2006,12,01,04,11,-1.90
2006,12,01,04,12,-1.80
2006,12,01,04,13,-1.80
2006,12,01,04,14,-1.80
2006,12,01,04,15,-1.80
2006,12,01,04,16,-1.80
2006,12,01,04,17,-1.80
2006,12,01,04,18,-1.80
2006,12,01,04,19,-1.90
2006,12,01,04,20,-1.90
2006,12,01,04,21,-1.90
2006,12,01,04,22,-2.00
2006,12,01,04,23,-2.00
2006,12,01,04,24,-2.00
2006,12,01,04,25,-2.00
2006,12,01,04,26,-1.90
2006,12,01,04,27,-1.90
2006,12,01,04,28,-1.90
2006,12,01,04,29,-1.90
2006,12,01,04,30,-1.90
2006,12,01,04,31,-1.90
2006,12,01,04,32,-1.90
2006,12,01,04,33,-1.90
2006,12,01,04,34,-2.00
2006,12,01,04,35,-2.00
2006,12,01,04,36,-2.10
2006,12,01,04,37,-2.20
2006,12,01,04,38,-2.20
2006,12,01,04,39,-2.30
2006,12,01,04,40,-2.30
2006,12,01,04,41,-2.30
2006,12,01,04,42,-2.20
2006,12,01,04,43,-2.20
2006,12,01,04,44,-2.10
2006,12,01,04,45,-2.10
2006,12,01,04,46,-2.10
2006,12,01,04,47,-2.10
2006,12,01,04,48,-2.20
2006,12,01,04,49,-2.20
2006,12,01,04,50,-2.30
2006,12,01,04,51,-2.30
2006,12,01,04,52,-2.40
2006,12,01,04,53,-2.40
2006,12,01,04,54,-2.50
2006,12,01,04,55,-2.60
2006,12,01,04,56,-2.60
2006,12,01,04,57,-2.70
2006,12,01,04,58,-2.70
2006,12,01,04,59,-2.70
2006,12,01,05,00,-2.60
2006,12,01,05,01,-2.60
2006,12,01,05,02,-2.50
2006,12,01,05,03,-2.40
2006,12,01,05,04,-2.40
2006,12,01,05,05,-2.30
2006,12,01,05,06,-2.30
2006,12,01,05,07,-2.30
2006,12,01,05,08,-2.30
2006,12,01,05,09,-2.20
2006,12,01,05,10,-2.20
2006,12,01,05,11,-2.10
2006,12,01,05,12,-2.10
2006,12,01,05,13,-2.00
2006,12,01,05,14,-2.00
2006,12,01,05,15,-2.10
2006,12,01,05,16,-2.10
2006,12,01,05,17,-2.20
2006,12,01,05,18,-2.30
2006,12,01,05,19,-2.40
2006,12,01,05,20,-2.60
2006,12,01,05,21,-2.70
2006,12,01,05,22,-2.80
2006,12,01,05,23,-3.00
2006,12,01,05,24,-3.10
2006,12,01,05,25,-3.10
2006,12,01,05,26,-3.00
2006,12,01,05,27,-3.00
2006,12,01,05,28,-3.00
2006,12,01,05,29,-2.90
2006,12,01,05,30,-2.70
2006,12,01,05,31,-2.50
2006,12,01,05,32,-2.20
2006,12,01,05,33,-2.00
2006,12,01,05,34,-1.80
2006,12,01,05,35,-1.60
2006,12,01,05,36,-1.50
2006,12,01,05,37,-1.50
2006,12,01,05,38,-1.40
2006,12,01,05,39,-1.40
2006,12,01,05,40,-1.40
2006,12,01,05,41,-1.30
2006,12,01,05,42,-1.30
2006,12,01,05,43,-1.30
2006,12,01,05,44,-1.30
2006,12,01,05,45,-1.30
2006,12,01,05,46,-1.30
2006,12,01,05,47,-1.30
2006,12,01,05,48,-1.40
2006,12,01,05,49,-1.40
2006,12,01,05,50,-1.50
2006,12,01,05,51,-1.60
2006,12,01,05,52,-1.60
2006,12,01,05,53,-1.60
2006,12,01,05,54,-1.60
2006,12,01,05,55,-1.70
2006,12,01,05,56,-1.80
2006,12,01,05,57,-1.90
2006,12,01,05,58,-2.00
2006,12,01,05,59,-2.00
2006,12,01,06,00,-2.10
2006,12,01,06,01,-2.20
2006,12,01,06,02,-2.30
2006,12,01,06,03,-2.30
2006,12,01,06,04,-2.40
2006,12,01,06,05,-2.50
2006,12,01,06,06,-2.50
2006,12,01,06,07,-2.60
2006,12,01,06,08,-2.60
2006,12,01,06,09,-2.60
2006,12,01,06,10,-2.50
2006,12,01,06,11,-2.50
2006,12,01,06,12,-2.40
2006,12,01,06,13,-2.30
2006,12,01,06,14,-2.30
2006,12,01,06,15,-2.20
2006,12,01,06,16,-2.10
2006,12,01,06,17,-2.10
2006,12,01,06,18,-2.10
2006,12,01,06,19,-2.10
2006,12,01,06,20,-2.10
2006,12,01,06,21,-2.10
2006,12,01,06,22,-2.10
2006,12,01,06,23,-2.00
2006,12,01,06,24,-2.00
2006,12,01,06,25,-2.00
2006,12,01,06,26,-2.00
2006,12,01,06,27,-2.00
2006,12,01,06,28,-2.00
2006,12,01,06,29,-2.10
2006,12,01,06,30,-2.20
2006,12,01,06,31,-2.30
2006,12,01,06,32,-2.40
2006,12,01,06,33,-2.40
2006,12,01,06,34,-2.50
2006,12,01,06,35,-2.50
2006,12,01,06,36,-2.60
2006,12,01,06,37,-2.60
2006,12,01,06,38,-2.60
2006,12,01,06,39,-2.70
2006,12,01,06,40,-2.70
2006,12,01,06,41,-2.60
2006,12,01,06,42,-2.60
2006,12,01,06,43,-2.60
2006,12,01,06,44,-2.60
2006,12,01,06,45,-2.60
2006,12,01,06,46,-2.50
2006,12,01,06,47,-2.40
2006,12,01,06,48,-2.30
2006,12,01,06,49,-2.20
2006,12,01,06,50,-2.20
2006,12,01,06,51,-2.20
2006,12,01,06,52,-2.20
2006,12,01,06,53,-2.30
2006,12,01,06,54,-2.30
2006,12,01,06,55,-2.40
2006,12,01,06,56,-2.50
2006,12,01,06,57,-2.50
2006,12,01,06,58,-2.40
2006,12,01,06,59,-2.40
2006,12,01,07,00,-2.30
2006,12,01,07,01,-2.20
2006,12,01,07,02,-2.20
2006,12,01,07,03,-2.10
2006,12,01,07,04,-2.00
2006,12,01,07,05,-1.90
2006,12,01,07,06,-1.90
2006,12,01,07,07,-1.80
2006,12,01,07,08,-1.80
2006,12,01,07,09,-1.80
2006,12,01,07,10,-1.80
2006,12,01,07,11,-1.90
2006,12,01,07,12,-1.90
2006,12,01,07,13,-1.80
2006,12,01,07,14,-1.80
2006,12,01,07,15,-1.70
2006,12,01,07,16,-1.70
2006,12,01,07,17,-1.60
2006,12,01,07,18,-1.60
2006,12,01,07,19,-1.60
2006,12,01,07,20,-1.60
2006,12,01,07,21,-1.70
2006,12,01,07,22,-1.80
2006,12,01,07,23,-1.80
2006,12,01,07,24,-2.00
2006,12,01,07,25,-2.10
2006,12,01,07,26,-2.20
2006,12,01,07,27,-2.30
2006,12,01,07,28,-2.40
2006,12,01,07,29,-2.50
2006,12,01,07,30,-2.60
2006,12,01,07,31,-2.60
2006,12,01,07,32,-2.70
2006,12,01,07,33,-2.70
2006,12,01,07,34,-2.70
2006,12,01,07,35,-2.70
2006,12,01,07,36,-2.70
2006,12,01,07,37,-2.70
2006,12,01,07,38,-2.70
2006,12,01,07,39,-2.70
2006,12,01,07,40,-2.60
2006,12,01,07,41,-2.60
2006,12,01,07,42,-2.60
2006,12,01,07,43,-2.60
2006,12,01,07,44,-2.60
2006,12,01,07,45,-2.60
2006,12,01,07,46,-2.70
2006,12,01,07,47,-2.70
2006,12,01,07,48,-2.70
2006,12,01,07,49,-2.70
2006,12,01,07,50,-2.70
2006,12,01,07,51,-2.70
2006,12,01,07,52,-2.70
2006,12,01,07,53,-2.70
2006,12,01,07,54,-2.70
2006,12,01,07,55,-2.70
2006,12,01,07,56,-2.70
2006,12,01,07,57,-2.80
2006,12,01,07,58,-2.80
2006,12,01,07,59,-2.80
2006,12,01,08,00,-2.80
2006,12,01,08,01,-2.80
2006,12,01,08,02,-2.90
2006,12,01,08,03,-2.90
2006,12,01,08,04,-2.90
2006,12,01,08,05,-2.90
2006,12,01,08,06,-2.90
2006,12,01,08,07,-2.80
2006,12,01,08,08,-2.80
2006,12,01,08,09,-2.80
2006,12,01,08,10,-2.80
2006,12,01,08,11,-2.80
2006,12,01,08,12,-2.80
2006,12,01,08,13,-2.80
2006,12,01,08,14,-2.80
2006,12,01,08,15,-2.80
2006,12,01,08,16,-2.80
2006,12,01,08,17,-2.80
2006,12,01,08,18,-2.80
2006,12,01,08,19,-2.70
2006,12,01,08,20,-2.70
2006,12,01,08,21,-2.60
2006,12,01,08,22,-2.60
2006,12,01,08,23,-2.50
2006,12,01,08,24,-2.50
2006,12,01,08,25,-2.50
2006,12,01,08,26,-2.50
2006,12,01,08,27,-2.40
2006,12,01,08,28,-2.40
2006,12,01,08,29,-2.40
2006,12,01,08,30,-2.40
2006,12,01,08,31,-2.40
2006,12,01,08,32,-2.30
2006,12,01,08,33,-2.20
2006,12,01,08,34,-2.00
2006,12,01,08,35,-1.90
2006,12,01,08,36,-1.80
2006,12,01,08,37,-1.80
2006,12,01,08,38,-1.80
2006,12,01,08,39,-1.80
2006,12,01,08,40,-1.70
2006,12,01,08,41,-1.70
2006,12,01,08,42,-1.60
2006,12,01,08,43,-1.60
2006,12,01,08,44,-1.60
2006,12,01,08,45,-1.60
2006,12,01,08,46,-1.60
2006,12,01,08,47,-1.70
2006,12,01,08,48,-1.70
2006,12,01,08,49,-1.60
2006,12,01,08,50,-1.60
2006,12,01,08,51,-1.60
2006,12,01,08,52,-1.60
2006,12,01,08,53,-1.60
2006,12,01,08,54,-1.60
2006,12,01,08,55,-1.50
2006,12,01,08,56,-1.50
2006,12,01,08,57,-1.50
2006,12,01,08,58,-1.60
2006,12,01,08,59,-1.60
2006,12,01,09,00,-1.70
2006,12,01,09,01,-1.70
2006,12,01,09,02,-1.80
2006,12,01,09,03,-1.80
2006,12,01,09,04,-1.80
2006,12,01,09,05,-1.80
2006,12,01,09,06,-1.80
2006,12,01,09,07,-1.80
2006,12,01,09,08,-1.80
2006,12,01,09,09,-1.80
2006,12,01,09,10,-1.70
2006,12,01,09,11,-1.70
2006,12,01,09,12,-1.70
2006,12,01,09,13,-1.80
2006,12,01,09,14,-1.80
2006,12,01,09,15,-1.80
2006,12,01,09,16,-1.80
2006,12,01,09,17,-1.80
2006,12,01,09,18,-1.80
2006,12,01,09,19,-1.80
2006,12,01,09,20,-1.70
2006,12,01,09,21,-1.70
2006,12,01,09,22,-1.60
2006,12,01,09,23,-1.50
2006,12,01,09,24,-1.50
2006,12,01,09,25,-1.40
2006,12,01,09,26,-1.40
2006,12,01,09,27,-1.30
2006,12,01,09,28,-1.30
2006,12,01,09,29,-1.20
2006,12,01,09,30,-1.20
2006,12,01,09,31,-1.10
2006,12,01,09,32,-1.00
2006,12,01,09,33,-0.90
2006,12,01,09,34,-0.90
2006,12,01,09,35,-0.80
2006,12,01,09,36,-0.70
2006,12,01,09,37,-0.70
2006,12,01,09,38,-0.60
2006,12,01,09,39,-0.60
2006,12,01,09,40,-0.60
2006,12,01,09,41,-0.60
2006,12,01,09,42,-0.70
2006,12,01,09,43,-0.70
2006,12,01,09,44,-0.70
2006,12,01,09,45,-0.70
2006,12,01,09,46,-0.70
2006,12,01,09,47,-0.70
2006,12,01,09,48,-0.60
2006,12,01,09,49,-0.60
2006,12,01,09,50,-0.60
2006,12,01,09,51,-0.50
2006,12,01,09,52,-0.40
2006,12,01,09,53,-0.40
2006,12,01,09,54,-0.40
2006,12,01,09,55,-0.40
2006,12,01,09,56,-0.30
2006,12,01,09,57,-0.30
2006,12,01,09,58,-0.20
2006,12,01,09,59,-0.20
2006,12,01,10,00,-0.20
2006,12,01,10,01,-0.20
2006,12,01,10,02,-0.20
2006,12,01,10,03,-0.20
2006,12,01,10,04,-0.10
2006,12,01,10,05,-0.10
2006,12,01,10,06,-0.10
2006,12,01,10,07,-0.10
2006,12,01,10,08,-0.10
2006,12,01,10,09,-0.10
2006,12,01,10,10,0.00
2006,12,01,10,11,0.10
2006,12,01,10,12,0.10
2006,12,01,10,13,-0.10
2006,12,01,10,14,0.00
2006,12,01,10,15,0.10
2006,12,01,10,16,0.10
2006,12,01,10,17,0.10
2006,12,01,10,18,0.20
2006,12,01,10,19,0.20
2006,12,01,10,20,0.20
2006,12,01,10,21,0.20
2006,12,01,10,22,0.20
2006,12,01,10,23,0.20
2006,12,01,10,24,0.20
2006,12,01,10,25,0.30
2006,12,01,10,26,0.30
2006,12,01,10,27,0.30
2006,12,01,10,28,0.40
2006,12,01,10,29,0.40
2006,12,01,10,30,0.40
2006,12,01,10,31,0.50
2006,12,01,10,32,0.50
2006,12,01,10,33,0.60
2006,12,01,10,34,0.60
2006,12,01,10,35,0.70
2006,12,01,10,36,0.80
2006,12,01,10,37,0.90
2006,12,01,10,38,0.90
2006,12,01,10,39,1.00
2006,12,01,10,40,1.10
2006,12,01,10,41,1.20
2006,12,01,10,42,1.30
2006,12,01,10,43,1.30
2006,12,01,10,44,1.30
2006,12,01,10,45,1.40
2006,12,01,10,46,1.40
2006,12,01,10,47,1.50
2006,12,01,10,48,1.50
2006,12,01,10,49,1.50
2006,12,01,10,50,1.50
2006,12,01,10,51,1.50
2006,12,01,10,52,1.50
2006,12,01,10,53,1.50
2006,12,01,10,54,1.50
2006,12,01,10,55,1.50
2006,12,01,10,56,1.50
2006,12,01,10,57,1.50
2006,12,01,10,58,1.50
2006,12,01,10,59,1.60
2006,12,01,11,00,1.60
2006,12,01,11,01,1.60
2006,12,01,11,02,1.60
2006,12,01,11,03,1.60
2006,12,01,11,04,1.70
2006,12,01,11,05,1.70
2006,12,01,11,06,1.80
2006,12,01,11,07,1.80
2006,12,01,11,08,1.80
2006,12,01,11,09,1.70
2006,12,01,11,10,1.70
2006,12,01,11,11,1.80
2006,12,01,11,12,1.80
2006,12,01,11,13,1.80
2006,12,01,11,14,1.80
2006,12,01,11,15,1.90
2006,12,01,11,16,1.90
2006,12,01,11,17,2.00
2006,12,01,11,18,2.00
2006,12,01,11,19,2.00
2006,12,01,11,20,2.00
2006,12,01,11,21,2.10
2006,12,01,11,22,2.10
2006,12,01,11,23,2.10
2006,12,01,11,24,2.20
2006,12,01,11,25,2.20
2006,12,01,11,26,2.20
2006,12,01,11,27,2.20
2006,12,01,11,28,2.20
2006,12,01,11,29,2.20
2006,12,01,11,30,2.20
2006,12,01,11,31,2.10
2006,12,01,11,32,2.10
2006,12,01,11,33,2.10
2006,12,01,11,34,2.20
2006,12,01,11,35,2.20
2006,12,01,11,36,2.20
2006,12,01,11,37,2.20
2006,12,01,11,38,2.20
2006,12,01,11,39,2.20
2006,12,01,11,40,2.20
2006,12,01,11,41,2.20
2006,12,01,11,42,2.30
2006,12,01,11,43,2.30
2006,12,01,11,44,2.40
2006,12,01,11,45,2.40
2006,12,01,11,46,2.50
2006,12,01,11,47,2.50
2006,12,01,11,48,2.60
2006,12,01,11,49,2.60
2006,12,01,11,50,2.70
2006,12,01,11,51,2.70
2006,12,01,11,52,2.70
2006,12,01,11,53,2.80
2006,12,01,11,54,2.80
2006,12,01,11,55,2.90
2006,12,01,11,56,2.90
2006,12,01,11,57,2.90
2006,12,01,11,58,2.90
2006,12,01,11,59,2.90
2006,12,01,12,00,2.90
2006,12,01,12,01,2.90
2006,12,01,12,02,2.90
2006,12,01,12,03,2.90
2006,12,01,12,04,2.90
2006,12,01,12,05,3.00
2006,12,01,12,06,3.10
2006,12,01,12,07,3.10
2006,12,01,12,08,3.10
2006,12,01,12,09,3.20
2006,12,01,12,10,3.20
2006,12,01,12,11,3.20
2006,12,01,12,12,3.30
2006,12,01,12,13,3.30
2006,12,01,12,14,3.30
2006,12,01,12,15,3.30
2006,12,01,12,16,3.40
2006,12,01,12,17,3.40
2006,12,01,12,18,3.50
2006,12,01,12,19,3.50
2006,12,01,12,20,3.60
2006,12,01,12,21,3.70
2006,12,01,12,22,3.80
2006,12,01,12,23,3.80
2006,12,01,12,24,3.80
2006,12,01,12,25,3.90
2006,12,01,12,26,3.90
2006,12,01,12,27,4.00
2006,12,01,12,28,4.00
2006,12,01,12,29,4.10
2006,12,01,12,30,4.20
2006,12,01,12,31,4.30
2006,12,01,12,32,4.40
2006,12,01,12,33,4.50
2006,12,01,12,34,4.60
2006,12,01,12,35,4.60
2006,12,01,12,36,4.70
2006,12,01,12,37,4.80
2006,12,01,12,38,4.80
2006,12,01,12,39,4.90
2006,12,01,12,40,4.90
2006,12,01,12,41,5.00
2006,12,01,12,42,5.10
2006,12,01,12,43,5.10
2006,12,01,12,44,5.10
2006,12,01,12,45,5.10
2006,12,01,12,46,5.10
2006,12,01,12,47,5.10
2006,12,01,12,48,5.10
2006,12,01,12,49,5.20
2006,12,01,12,50,5.20
2006,12,01,12,51,5.20
2006,12,01,12,52,5.20
2006,12,01,12,53,5.20
2006,12,01,12,54,5.20
2006,12,01,12,55,5.20
2006,12,01,12,56,5.20
2006,12,01,12,57,5.20
2006,12,01,12,58,5.20
2006,12,01,12,59,5.20
2006,12,01,13,00,5.10
2006,12,01,13,01,5.10
2006,12,01,13,02,5.10
2006,12,01,13,03,5.10
2006,12,01,13,04,5.10
2006,12,01,13,05,5.10
2006,12,01,13,06,5.10
2006,12,01,13,07,5.10
2006,12,01,13,08,5.10
2006,12,01,13,09,5.10
2006,12,01,13,10,5.10
2006,12,01,13,11,5.10
2006,12,01,13,12,5.10
2006,12,01,13,13,5.10
2006,12,01,13,14,5.10
2006,12,01,13,15,5.10
2006,12,01,13,16,5.10
2006,12,01,13,17,5.10
2006,12,01,13,18,5.00
2006,12,01,13,19,4.90
2006,12,01,13,20,4.90
2006,12,01,13,21,4.90
2006,12,01,13,22,4.90
2006,12,01,13,23,4.90
2006,12,01,13,24,4.90
2006,12,01,13,25,4.90
2006,12,01,13,26,4.90
2006,12,01,13,27,4.90
2006,12,01,13,28,4.90
2006,12,01,13,29,4.90
2006,12,01,13,30,4.90
2006,12,01,13,31,4.90
2006,12,01,13,32,4.90
2006,12,01,13,33,4.90
2006,12,01,13,34,4.90
2006,12,01,13,35,4.90
2006,12,01,13,36,4.90
2006,12,01,13,37,4.90
2006,12,01,13,38,4.90
2006,12,01,13,39,4.90
2006,12,01,13,40,4.90
2006,12,01,13,41,4.90
2006,12,01,13,42,4.90
2006,12,01,13,43,4.90
2006,12,01,13,44,4.90
2006,12,01,13,45,4.90
2006,12,01,13,46,4.90
2006,12,01,13,47,4.90
2006,12,01,13,48,4.80
2006,12,01,13,49,4.80
2006,12,01,13,50,4.80
2006,12,01,13,51,4.80
2006,12,01,13,52,4.80
2006,12,01,13,53,4.80
2006,12,01,13,54,4.80
2006,12,01,13,55,4.80
2006,12,01,13,56,4.80
2006,12,01,13,57,4.80
2006,12,01,13,58,4.80
2006,12,01,13,59,4.90
2006,12,01,14,00,4.90
2006,12,01,14,01,4.90
2006,12,01,14,02,4.90
2006,12,01,14,03,4.90
2006,12,01,14,04,4.90
2006,12,01,14,05,4.90
2006,12,01,14,06,4.90
2006,12,01,14,07,4.90
2006,12,01,14,08,4.90
2006,12,01,14,09,4.90
2006,12,01,14,10,4.90
2006,12,01,14,11,4.90
2006,12,01,14,12,4.90
2006,12,01,14,13,5.00
2006,12,01,14,14,5.10
2006,12,01,14,15,5.00
2006,12,01,14,16,4.90
2006,12,01,14,17,5.10
2006,12,01,14,18,5.10
2006,12,01,14,19,5.10
2006,12,01,14,20,5.10
2006,12,01,14,21,5.10
2006,12,01,14,22,5.10
2006,12,01,14,23,5.10
2006,12,01,14,24,5.10
2006,12,01,14,25,5.10
2006,12,01,14,26,5.10
2006,12,01,14,27,5.10
2006,12,01,14,28,5.10
2006,12,01,14,29,5.10
2006,12,01,14,30,5.10
2006,12,01,14,31,5.10
2006,12,01,14,32,5.00
2006,12,01,14,33,4.90
2006,12,01,14,34,4.90
2006,12,01,14,35,4.90
2006,12,01,14,36,4.90
2006,12,01,14,37,4.90
2006,12,01,14,38,4.90
2006,12,01,14,39,4.90
2006,12,01,14,40,4.90
2006,12,01,14,41,4.90
2006,12,01,14,42,5.00
2006,12,01,14,43,5.10
2006,12,01,14,44,5.10
2006,12,01,14,45,5.10
2006,12,01,14,46,5.10
2006,12,01,14,47,5.20
2006,12,01,14,48,5.20
2006,12,01,14,49,5.20
2006,12,01,14,50,5.20
2006,12,01,14,51,5.20
2006,12,01,14,52,5.20
2006,12,01,14,53,5.20
2006,12,01,14,54,5.20
2006,12,01,14,55,5.20
2006,12,01,14,56,5.20
2006,12,01,14,57,5.20
2006,12,01,14,58,5.10
2006,12,01,14,59,5.10
2006,12,01,15,00,5.10
2006,12,01,15,01,5.10
2006,12,01,15,02,5.10
2006,12,01,15,03,5.10
2006,12,01,15,04,5.10
2006,12,01,15,05,5.10
2006,12,01,15,06,5.10
2006,12,01,15,07,5.10
2006,12,01,15,08,5.10
2006,12,01,15,09,5.10
2006,12,01,15,10,5.00
2006,12,01,15,11,4.90
2006,12,01,15,12,4.90
2006,12,01,15,13,4.90
2006,12,01,15,14,4.80
2006,12,01,15,15,4.70
2006,12,01,15,16,4.70
2006,12,01,15,17,4.60
2006,12,01,15,18,4.60
2006,12,01,15,19,4.50
2006,12,01,15,20,4.50
2006,12,01,15,21,4.40
2006,12,01,15,22,4.40
2006,12,01,15,23,4.40
2006,12,01,15,24,4.30
2006,12,01,15,25,4.30
2006,12,01,15,26,4.30
2006,12,01,15,27,4.20
2006,12,01,15,28,4.20
2006,12,01,15,29,4.20
2006,12,01,15,30,4.10
2006,12,01,15,31,4.00
2006,12,01,15,32,4.00
2006,12,01,15,33,3.90
2006,12,01,15,34,3.90
2006,12,01,15,35,3.80
2006,12,01,15,36,3.80
2006,12,01,15,37,3.80
2006,12,01,15,38,3.80
2006,12,01,15,39,3.70
2006,12,01,15,40,3.70
2006,12,01,15,41,3.60
2006,12,01,15,42,3.60
2006,12,01,15,43,3.50
2006,12,01,15,44,3.50
2006,12,01,15,45,3.50
2006,12,01,15,46,3.40
2006,12,01,15,47,3.40
2006,12,01,15,48,3.40
2006,12,01,15,49,3.40
2006,12,01,15,50,3.40
2006,12,01,15,51,3.30
2006,12,01,15,52,3.30
2006,12,01,15,53,3.30
2006,12,01,15,54,3.30
2006,12,01,15,55,3.30
2006,12,01,15,56,3.30
2006,12,01,15,57,3.30
2006,12,01,15,58,3.30
2006,12,01,15,59,3.20
2006,12,01,16,00,3.20
2006,12,01,16,01,3.20
2006,12,01,16,02,3.10
2006,12,01,16,03,3.10
2006,12,01,16,04,3.10
2006,12,01,16,05,3.10
2006,12,01,16,06,3.10
2006,12,01,16,07,3.00
2006,12,01,16,08,2.90
2006,12,01,16,09,2.90
2006,12,01,16,10,2.90
2006,12,01,16,11,2.90
2006,12,01,16,12,2.80
2006,12,01,16,13,2.80
2006,12,01,16,14,2.70
2006,12,01,16,15,2.70
2006,12,01,16,16,2.60
2006,12,01,16,17,2.60
2006,12,01,16,18,2.50
2006,12,01,16,19,2.50
2006,12,01,16,20,2.40
2006,12,01,16,21,2.40
2006,12,01,16,22,2.30
2006,12,01,16,23,2.30
2006,12,01,16,24,2.30
2006,12,01,16,25,2.30
2006,12,01,16,26,2.20
2006,12,01,16,27,2.20
2006,12,01,16,28,2.20
2006,12,01,16,29,2.20
2006,12,01,16,30,2.20
2006,12,01,16,31,2.20
2006,12,01,16,32,2.20
2006,12,01,16,33,2.20
2006,12,01,16,34,2.20
2006,12,01,16,35,2.20
2006,12,01,16,36,2.20
2006,12,01,16,37,2.20
2006,12,01,16,38,2.10
2006,12,01,16,39,2.10
2006,12,01,16,40,2.00
2006,12,01,16,41,1.90
2006,12,01,16,42,1.80
2006,12,01,16,43,1.80
2006,12,01,16,44,1.70
2006,12,01,16,45,1.60
2006,12,01,16,46,1.60
2006,12,01,16,47,1.50
2006,12,01,16,48,1.40
2006,12,01,16,49,1.40
2006,12,01,16,50,1.30
2006,12,01,16,51,1.30
2006,12,01,16,52,1.30
2006,12,01,16,53,1.30
2006,12,01,16,54,1.30
2006,12,01,16,55,1.30
2006,12,01,16,56,1.30
2006,12,01,16,57,1.40
2006,12,01,16,58,1.30
2006,12,01,16,59,1.30
2006,12,01,17,00,1.30
2006,12,01,17,01,1.30
2006,12,01,17,02,1.30
2006,12,01,17,03,1.30
2006,12,01,17,04,1.30
2006,12,01,17,05,1.30
2006,12,01,17,06,1.30
2006,12,01,17,07,1.30
2006,12,01,17,08,1.20
2006,12,01,17,09,1.20
2006,12,01,17,10,1.10
2006,12,01,17,11,1.10
2006,12,01,17,12,1.10
2006,12,01,17,13,1.10
2006,12,01,17,14,1.10
2006,12,01,17,15,1.10
2006,12,01,17,16,1.10
2006,12,01,17,17,1.10
2006,12,01,17,18,1.10
2006,12,01,17,19,1.10
2006,12,01,17,20,1.10
2006,12,01,17,21,1.00
2006,12,01,17,22,1.00
2006,12,01,17,23,1.00
2006,12,01,17,24,1.00
2006,12,01,17,25,1.00
2006,12,01,17,26,1.00
2006,12,01,17,27,1.10
2006,12,01,17,28,1.20
2006,12,01,17,29,1.20
2006,12,01,17,30,1.20
2006,12,01,17,31,1.30
2006,12,01,17,32,1.30
2006,12,01,17,33,1.30
2006,12,01,17,34,1.30
2006,12,01,17,35,1.30
2006,12,01,17,36,1.30
2006,12,01,17,37,1.30
2006,12,01,17,38,1.30